Archival Weather

Chicago O'Hare International

Chicago, Illinois (KORD)

Report from: Wednesday, January 25, 2023 7:51 AM CST
Current time: Tuesday, February 27, 2024 4:35 AM CST

Current weather – Weather history – Daily summaries
Weather forecast

Present weatherSnow, fog
Temperature0.6°C (33.1°F)
Wind chill-3.6°C (25.5°F)
Dew point-1.1°C (30.0°F)
Winds 8 kts (4.1 m/s, 9.2 mph) Northeast (50°)
Visibility2640 ft. (804.7 m)
Clouds Ceiling: Overcast 400 ft. (122 m)
Altimeter29.77 in.Hg (1008 mB)
Precipitiation0.02 in. (1 mm)
Relative humidity88 %
Density altitude-1,516 ft. (-462 m)
Sea-level pressure100.9 kPa (1009 mB, 29.79 in.Hg)
Remarks Automated weather observing station with precipitation discriminator
Snow increasing rapidly
Flight conditions Low Instrument Meteorological Conditions
Raw dataKORD 251351Z 05008KT 1/2SM R10L/4000V5000FT SN FG OVC004 01/M01 A2977 RMK AO2 SLP087 SNINCR 1/3 P0002 T00061011
An error has occurred. This application may no longer respond until reloaded. Reload 🗙